Torna al catalogo

SL-16 DEB

AttivoLEO
NORAD 22502·DEBRIS·🇷🇺 Russia

Lanciato Dec 25, 1992 da Baikonur Cosmodrome

Loading…

Prossimi Passaggi (prossime 24 ore)

TLE

AggiornatoSource: Space-Track

Epoca: Sep 14, 2026, 03:31 UTC

1 22502U 92093GM  26257.14657247  .00000165  00000-0  15657-3 0  9991
2 22502  70.8160 152.6503 0151525 167.4080 343.7260 13.89755122706700

Traccia SL-16 DEB in tempo reale con AllMySat

Download on the App Store